User: anonymous   Login
Location: Irma
(52.9170°N, 111.2330°W)
Time: 05:21:58
(UTC-06:00)
Language:

deb Chang Zheng 4 - Orbit

View from above orbital plane
View from above orbital plane
View from above satellite
View from above satellite

Ground track
Ground track

The orbit data is extracted from the following two-line orbital elements,

1 20847U 90081K   15090.15283414  .00015429  00000-0  23998-2 0  9996
2 20847 098.5820 273.2033 0020455 118.3580 305.7726 14.72971922286333
Epoch (UTC): 31 March 2015 03:40:04
Eccentricity: 0.0020455
inclination: 98.5820°
perigee height: 637 km
apogee height: 666 km
right ascension of ascending node: 273.2033°
argument of perigee: 118.3580°
revolutions per day: 14.72971922
mean anomaly at epoch: 305.7726°
orbit number at epoch: 28633

The dashed part of the orbit path shows where the satellite is in the earth's shadow,  

DLR